Location: Augirein
(42.9320°N, 0.9181°E)
Time: 16:44:03
(UTC+00:00)

Cosmos 1943 - Pass Details

Date: 20 June 2021
Orbit: 832 x 851 km, 71.0° (Epoch: 03 August)

Event Time Altitude Azimuth Distance (km) Brightness Sun altitude
Exits shadow 01:33:41 32° 239° (WSW) 1,398 3.9 -20.1°
Maximum altitude 01:36:02 53° 299° (WNW) 1,018 3.6 -19.9°
Drops below altitude 10° 01:41:34 10° 16° (NNE) 2,464 6.8 -19.5°
Sets 01:44:06 0° 22° (NNE) 3,406 8.0 -19.3°
